When you browse on this site, cookies collect data to enhance your experience and personalize the content and advertising you see.
Visit our Privacy Policy to learn more. By continuing to use the site, you agree to this use of cookies and data.
  • In Netherlands
  • List of Countries
  • For 7 days
  • Water Temperature
  • Satellite Maps
  • Weather Map
  • Weather Widgets
  • user-avatar
    Login

    Hourly Weather Tirana

    Today, 20 March, Wednesday

    Time Temperature Precipitation Wind Pressure Humidity
    00:00 +12°C° 0 mm 1 mps 756 mmHg 83%
    01:00 +12°C° 0 mm 1 mps 756 mmHg 84%
    02:00 +12°C° 0 mm 1 mps 756 mmHg 83%
    03:00 +12°C° 0 mm 2 mps 756 mmHg 82%
    04:00 +12°C° 0 mm 2 mps 756 mmHg 82%
    05:00 +12°C° 0 mm 2 mps 757 mmHg 79%
    06:00 +13°C° 0 mm 2 mps 757 mmHg 76%
    07:00 +13°C° 0 mm 2 mps 757 mmHg 73%
    08:00 +16°C° 0 mm 2 mps 757 mmHg 64%
    09:00 +18°C° 0 mm 2 mps 757 mmHg 55%
    10:00 +20°C° 0 mm 3 mps 757 mmHg 46%
    11:00 +21°C° 0 mm 3 mps 757 mmHg 43%
    12:00 +22°C° 0 mm 4 mps 757 mmHg 41%
    13:00 +23°C° 0 mm 4 mps 757 mmHg 38%
    14:00 +23°C° 0.1 mm 5 mps 757 mmHg 40%
    15:00 +22°C° 0.1 mm 6 mps 757 mmHg 42%
    16:00 +22°C° 0.1 mm 6 mps 757 mmHg 44%
    17:00 +20°C° 0.2 mm 6 mps 758 mmHg 49%
    18:00 +17°C° 0.2 mm 5 mps 758 mmHg 54%
    19:00 +16°C° 0.2 mm 5 mps 758 mmHg 59%
    20:00 +15°C° 0 mm 5 mps 759 mmHg 58%
    21:00 +15°C° 0 mm 5 mps 759 mmHg 58%
    22:00 +15°C° 0 mm 5 mps 759 mmHg 57%
    23:00 +14°C° 0 mm 5 mps 760 mmHg 57%

    Tomorrow, 21 March, Thursday

    Time Temperature Precipitation Wind Pressure Humidity
    00:00 +14°C° 0 mm 5 mps 760 mmHg 57%
    01:00 +13°C° 0 mm 5 mps 760 mmHg 57%
    02:00 +13°C° 0 mm 5 mps 760 mmHg 58%
    03:00 +12°C° 0 mm 5 mps 760 mmHg 60%
    04:00 +12°C° 0 mm 5 mps 760 mmHg 61%
    05:00 +12°C° 0 mm 5 mps 760 mmHg 61%
    06:00 +12°C° 0 mm 4 mps 761 mmHg 62%
    07:00 +13°C° 0 mm 4 mps 761 mmHg 62%
    08:00 +15°C° 0 mm 4 mps 761 mmHg 55%
    09:00 +18°C° 0 mm 4 mps 761 mmHg 48%
    10:00 +21°C° 0 mm 4 mps 761 mmHg 41%
    11:00 +21°C° 0 mm 4 mps 761 mmHg 39%
    12:00 +22°C° 0 mm 4 mps 760 mmHg 36%
    13:00 +23°C° 0 mm 4 mps 760 mmHg 33%
    14:00 +23°C° 0 mm 5 mps 760 mmHg 35%
    15:00 +22°C° 0 mm 5 mps 760 mmHg 36%
    16:00 +22°C° 0 mm 5 mps 759 mmHg 38%
    17:00 +20°C° 0 mm 5 mps 760 mmHg 42%
    18:00 +18°C° 0 mm 4 mps 760 mmHg 46%
    19:00 +15°C° 0 mm 4 mps 760 mmHg 50%
    20:00 +15°C° 0 mm 4 mps 761 mmHg 52%
    21:00 +14°C° 0 mm 4 mps 761 mmHg 53%
    22:00 +13°C° 0 mm 4 mps 761 mmHg 55%
    23:00 +13°C° 0 mm 4 mps 762 mmHg 56%

    Day after tomorrow, 22 March, Friday

    Time Temperature Precipitation Wind Pressure Humidity
    00:00 +13°C° 0 mm 4 mps 762 mmHg 57%
    01:00 +12°C° 0 mm 4 mps 762 mmHg 58%
    02:00 +12°C° 0 mm 4 mps 762 mmHg 59%
    03:00 +11°C° 0 mm 4 mps 762 mmHg 60%
    04:00 +11°C° 0 mm 3 mps 762 mmHg 61%
    05:00 +11°C° 0 mm 3 mps 762 mmHg 62%
    06:00 +12°C° 0 mm 3 mps 762 mmHg 62%
    07:00 +12°C° 0 mm 3 mps 762 mmHg 62%
    08:00 +16°C° 0 mm 3 mps 762 mmHg 55%
    09:00 +18°C° 0 mm 3 mps 762 mmHg 48%
    10:00 +20°C° 0 mm 3 mps 762 mmHg 40%
    11:00 +21°C° 0 mm 3 mps 761 mmHg 38%
    12:00 +22°C° 0 mm 4 mps 761 mmHg 35%
    13:00 +23°C° 0 mm 4 mps 761 mmHg 33%
    14:00 +22°C° 0 mm 5 mps 760 mmHg 35%
    15:00 +22°C° 0 mm 6 mps 760 mmHg 37%
    16:00 +21°C° 0 mm 6 mps 760 mmHg 39%
    17:00 +19°C° 0 mm 6 mps 760 mmHg 47%
    18:00 +16°C° 0 mm 6 mps 760 mmHg 55%
    19:00 +14°C° 0 mm 5 mps 760 mmHg 63%
    20:00 +14°C° 0 mm 5 mps 760 mmHg 62%
    21:00 +14°C° 0 mm 4 mps 761 mmHg 60%
    22:00 +13°C° 0 mm 3 mps 761 mmHg 58%
    23:00 +13°C° 0 mm 3 mps 761 mmHg 57%

    23 March, Saturday

    Time Temperature Precipitation Wind Pressure Humidity
    00:00 +14°C° 0 mm 2 mps 761 mmHg 56%
    01:00 +13°C° 0 mm 2 mps 761 mmHg 55%
    02:00 +13°C° 0 mm 2 mps 760 mmHg 56%
    03:00 +13°C° 0 mm 2 mps 760 mmHg 57%
    04:00 +12°C° 0 mm 2 mps 760 mmHg 57%
    05:00 +13°C° 0 mm 2 mps 760 mmHg 58%
    06:00 +13°C° 0 mm 2 mps 760 mmHg 58%
    07:00 +14°C° 0 mm 2 mps 760 mmHg 59%
    08:00 +16°C° 0 mm 2 mps 760 mmHg 51%
    09:00 +18°C° 0 mm 2 mps 760 mmHg 44%
    10:00 +21°C° 0 mm 2 mps 760 mmHg 36%
    11:00 +21°C° 0 mm 2 mps 759 mmHg 35%
    12:00 +22°C° 0 mm 3 mps 759 mmHg 34%
    13:00 +23°C° 0 mm 4 mps 759 mmHg 32%
    14:00 +22°C° 0 mm 4 mps 759 mmHg 36%
    15:00 +22°C° 0 mm 5 mps 758 mmHg 39%
    16:00 +21°C° 0 mm 5 mps 758 mmHg 43%
    17:00 +19°C° 0 mm 5 mps 758 mmHg 51%
    18:00 +17°C° 0 mm 4 mps 759 mmHg 60%
    19:00 +14°C° 0 mm 3 mps 759 mmHg 68%
    20:00 +14°C° 0 mm 3 mps 759 mmHg 67%
    21:00 +15°C° 0 mm 2 mps 759 mmHg 65%
    22:00 +15°C° 0 mm 1 mps 760 mmHg 64%
    23:00 +14°C° 0 mm 1 mps 760 mmHg 63%

    24 March, Sunday

    Time Temperature Precipitation Wind Pressure Humidity
    00:00 +14°C° 0 mm 1 mps 760 mmHg 61%
    01:00 +14°C° 0 mm 1 mps 760 mmHg 60%
    02:00 +13°C° 0 mm 1 mps 760 mmHg 59%
    03:00 +13°C° 0 mm 1 mps 759 mmHg 58%
    04:00 +13°C° 0 mm 1 mps 759 mmHg 57%
    05:00 +13°C° 0 mm 1 mps 759 mmHg 56%
    06:00 +14°C° 0 mm 1 mps 759 mmHg 56%
    07:00 +15°C° 0 mm 1 mps 759 mmHg 55%
    08:00 +18°C° 0 mm 1 mps 759 mmHg 49%
    09:00 +20°C° 0 mm 1 mps 759 mmHg 43%
    10:00 +20°C° 0 mm 0 mps 759 mmHg 37%
    11:00 +21°C° 0 mm 2 mps 759 mmHg 38%
    12:00 +22°C° 0 mm 3 mps 758 mmHg 38%
    13:00 +22°C° 0 mm 4 mps 758 mmHg 39%
    14:00 +21°C° 0 mm 4 mps 757 mmHg 41%
    15:00 +21°C° 0 mm 4 mps 757 mmHg 44%
    16:00 +20°C° 0 mm 4 mps 757 mmHg 47%
    17:00 +18°C° 0 mm 4 mps 757 mmHg 55%
    18:00 +16°C° 0 mm 3 mps 757 mmHg 63%
    19:00 +14°C° 0 mm 2 mps 757 mmHg 71%
    20:00 +14°C° 0 mm 2 mps 757 mmHg 71%
    21:00 +14°C° 0 mm 1 mps 757 mmHg 71%
    22:00 +13°C° 0 mm 0 mps 757 mmHg 72%
    23:00 +12°C° 0 mm 0 mps 757 mmHg 72%

    25 March, Monday

    Time Temperature Precipitation Wind Pressure Humidity
    00:00 +12°C° 0 mm 0 mps 757 mmHg 72%
    01:00 +12°C° 0 mm 0 mps 756 mmHg 73%
    02:00 +12°C° 0 mm 0 mps 756 mmHg 73%
    03:00 +13°C° 0 mm 1 mps 756 mmHg 73%
    04:00 +12°C° 0 mm 1 mps 756 mmHg 73%
    05:00 +13°C° 0 mm 1 mps 756 mmHg 70%
    06:00 +14°C° 0 mm 1 mps 756 mmHg 68%
    07:00 +15°C° 0 mm 1 mps 756 mmHg 65%
    08:00 +16°C° 0 mm 1 mps 755 mmHg 60%
    09:00 +19°C° 0 mm 1 mps 755 mmHg 55%
    10:00 +21°C° 0 mm 1 mps 755 mmHg 51%
    11:00 +20°C° 0 mm 2 mps 755 mmHg 51%
    12:00 +21°C° 0 mm 3 mps 754 mmHg 51%
    13:00 +21°C° 0 mm 4 mps 754 mmHg 51%
    14:00 +20°C° 0 mm 4 mps 753 mmHg 54%
    15:00 +20°C° 0 mm 4 mps 753 mmHg 57%
    16:00 +19°C° 0 mm 4 mps 752 mmHg 60%
    17:00 +17°C° 0 mm 3 mps 752 mmHg 69%
    18:00 +15°C° 0 mm 2 mps 753 mmHg 78%
    19:00 +14°C° 0 mm 2 mps 753 mmHg 88%
    20:00 +13°C° 0 mm 1 mps 753 mmHg 88%
    21:00 +13°C° 0 mm 1 mps 753 mmHg 88%
    22:00 +13°C° 0 mm 1 mps 753 mmHg 89%
    23:00 +12°C° 0 mm 1 mps 753 mmHg 89%
    Show more